Time,TemperatureF,DewpointF,PressureIn,WindDirection,WindDirectionDegrees,WindSpeedMPH,WindSpeedGustMPH,Humidity,HourlyPrecipIn,Conditions,Clouds,dailyrainin,SoftwareType,DateUTC
2013-07-05 00:01:00,71.2,70.0,30.12,ESE,107,1.0,1.0,96,0.00,,---,0.00,VWS V13.01,2013-07-05 04:01:00,
2013-07-05 00:02:00,71.2,70.0,30.11,ESE,107,0.0,1.0,96,0.00,,---,0.00,VWS V13.01,2013-07-05 04:02:00,
2013-07-05 00:07:00,71.1,69.9,30.12,ESE,107,0.0,2.0,96,0.00,,---,0.00,VWS V13.01,2013-07-05 04:07:00,
2013-07-05 00:12:00,71.0,69.8,30.12,ESE,107,0.0,2.0,96,0.00,,---,0.00,VWS V13.01,2013-07-05 04:12:00,
2013-07-05 00:17:00,70.9,69.7,30.12,ESE,107,0.0,2.0,96,0.00,,---,0.00,VWS V13.01,2013-07-05 04:17:00,
2013-07-05 00:22:00,70.8,69.6,30.12,ESE,107,0.0,2.0,96,0.00,,---,0.00,VWS V13.01,2013-07-05 04:22:00,
2013-07-05 00:27:00,70.8,69.6,30.12,ESE,107,0.0,2.0,96,0.00,,---,0.00,VWS V13.01,2013-07-05 04:27:00,
2013-07-05 00:32:00,70.7,69.5,30.12,ESE,107,0.0,0.0,96,0.00,,---,0.00,VWS V13.01,2013-07-05 04:32:00,
2013-07-05 00:37:00,70.6,69.4,30.12,ESE,107,0.0,1.0,96,0.00,,---,0.00,VWS V13.01,2013-07-05 04:37:00,
2013-07-05 00:42:00,70.5,69.3,30.12,ESE,107,0.0,1.0,96,0.00,,---,0.00,VWS V13.01,2013-07-05 04:42:00,
2013-07-05 00:47:00,70.4,69.2,30.12,ESE,107,0.0,1.0,96,0.00,,---,0.00,VWS V13.01,2013-07-05 04:47:00,
2013-07-05 00:52:00,70.4,69.2,30.12,ESE,107,0.0,1.0,96,0.00,,---,0.00,VWS V13.01,2013-07-05 04:52:00,
2013-07-05 00:57:00,70.3,69.1,30.12,ESE,107,0.0,1.0,96,0.00,,---,0.00,VWS V13.01,2013-07-05 04:57:00,
2013-07-05 01:02:00,70.4,69.2,30.12,ESE,107,0.0,1.0,96,0.00,,---,0.00,VWS V13.01,2013-07-05 05:02:00,
2013-07-05 01:07:00,70.4,69.5,30.12,ESE,107,0.0,1.0,97,0.00,,---,0.00,VWS V13.01,2013-07-05 05:07:00,
2013-07-05 01:12:00,70.3,69.4,30.12,ESE,107,0.0,1.0,97,0.00,,---,0.00,VWS V13.01,2013-07-05 05:12:00,
2013-07-05 01:17:00,70.3,69.4,30.12,ESE,107,0.0,1.0,97,0.00,,---,0.00,VWS V13.01,2013-07-05 05:17:00,
2013-07-05 01:22:00,70.3,69.1,30.12,ESE,107,0.0,1.0,96,0.00,,---,0.00,VWS V13.01,2013-07-05 05:22:00,
2013-07-05 01:27:00,70.2,69.0,30.12,ESE,107,0.0,1.0,96,0.00,,---,0.00,VWS V13.01,2013-07-05 05:27:00,
2013-07-05 01:32:00,70.1,68.9,30.12,ESE,107,0.0,1.0,96,0.00,,---,0.00,VWS V13.01,2013-07-05 05:32:00,
2013-07-05 01:37:00,70.0,68.8,30.12,ESE,107,0.0,1.0,96,0.00,,---,0.00,VWS V13.01,2013-07-05 05:37:00,
2013-07-05 01:42:00,70.0,68.8,30.12,ESE,107,0.0,1.0,96,0.00,,---,0.00,VWS V13.01,2013-07-05 05:42:00,
2013-07-05 01:47:00,69.9,69.0,30.12,ESE,107,0.0,1.0,97,0.00,,---,0.00,VWS V13.01,2013-07-05 05:47:00,
2013-07-05 01:52:00,69.9,69.0,30.12,ESE,107,0.0,1.0,97,0.00,,---,0.00,VWS V13.01,2013-07-05 05:52:00,
2013-07-05 01:57:00,69.8,68.9,30.12,ESE,107,0.0,1.0,97,0.00,,---,0.00,VWS V13.01,2013-07-05 05:57:00,
2013-07-05 02:02:00,69.7,68.8,30.12,ESE,107,0.0,0.0,97,0.00,,---,0.00,VWS V13.01,2013-07-05 06:02:00,
2013-07-05 02:07:00,69.7,68.8,30.12,ESE,107,0.0,1.0,97,0.00,,---,0.00,VWS V13.01,2013-07-05 06:07:00,
2013-07-05 02:12:00,69.6,68.4,30.12,ESE,107,0.0,1.0,96,0.00,,---,0.00,VWS V13.01,2013-07-05 06:12:00,
2013-07-05 02:17:00,69.5,68.3,30.11,ESE,107,0.0,1.0,96,0.00,,---,0.00,VWS V13.01,2013-07-05 06:17:00,
2013-07-05 02:22:00,69.5,68.3,30.11,ESE,107,0.0,1.0,96,0.00,,---,0.00,VWS V13.01,2013-07-05 06:22:00,
2013-07-05 02:27:00,69.5,68.6,30.11,ESE,107,0.0,1.0,97,0.00,,---,0.00,VWS V13.01,2013-07-05 06:27:00,
2013-07-05 02:32:00,69.5,68.6,30.12,ESE,107,0.0,0.0,97,0.00,,---,0.00,VWS V13.01,2013-07-05 06:32:00,
2013-07-05 02:37:00,69.4,68.5,30.12,ESE,107,0.0,0.0,97,0.00,,---,0.00,VWS V13.01,2013-07-05 06:37:00,
2013-07-05 02:42:00,69.4,68.2,30.12,ESE,107,0.0,0.0,96,0.00,,---,0.00,VWS V13.01,2013-07-05 06:42:00,
2013-07-05 02:47:00,69.2,68.3,30.11,ESE,107,0.0,1.0,97,0.00,,---,0.00,VWS V13.01,2013-07-05 06:47:00,
2013-07-05 02:52:00,69.2,68.3,30.11,ESE,107,0.0,1.0,97,0.00,,---,0.00,VWS V13.01,2013-07-05 06:52:00,
2013-07-05 02:57:00,69.1,68.2,30.11,ESE,107,0.0,1.0,97,0.00,,---,0.00,VWS V13.01,2013-07-05 06:57:00,
2013-07-05 03:02:00,69.0,68.1,30.11,ESE,107,0.0,0.0,97,0.00,,---,0.00,VWS V13.01,2013-07-05 07:02:00,
2013-07-05 03:07:00,68.9,67.7,30.11,ESE,107,0.0,0.0,96,0.00,,---,0.00,VWS V13.01,2013-07-05 07:07:00,
2013-07-05 03:12:00,68.7,67.5,30.11,ESE,107,0.0,1.0,96,0.00,,---,0.00,VWS V13.01,2013-07-05 07:12:00,
2013-07-05 03:17:00,68.6,67.4,30.11,ESE,107,0.0,1.0,96,0.00,,---,0.00,VWS V13.01,2013-07-05 07:17:00,
2013-07-05 03:22:00,68.5,67.3,30.11,ESE,107,0.0,1.0,96,0.00,,---,0.00,VWS V13.01,2013-07-05 07:22:00,
2013-07-05 03:27:00,68.4,67.2,30.11,ESE,107,0.0,1.0,96,0.00,,---,0.00,VWS V13.01,2013-07-05 07:27:00,
2013-07-05 03:32:00,68.2,67.0,30.11,ESE,107,0.0,0.0,96,0.00,,---,0.00,VWS V13.01,2013-07-05 07:32:00,
2013-07-05 03:37:00,68.1,66.9,30.11,ESE,107,0.0,0.0,96,0.00,,---,0.00,VWS V13.01,2013-07-05 07:37:00,
2013-07-05 03:42:00,68.1,66.9,30.11,ESE,107,0.0,0.0,96,0.00,,---,0.00,VWS V13.01,2013-07-05 07:42:00,
2013-07-05 03:47:00,68.0,66.8,30.11,ESE,107,0.0,0.0,96,0.00,,---,0.00,VWS V13.01,2013-07-05 07:47:00,
2013-07-05 03:52:00,67.9,66.7,30.11,ESE,107,0.0,0.0,96,0.00,,---,0.00,VWS V13.01,2013-07-05 07:52:00,
2013-07-05 03:57:00,67.9,66.7,30.11,ESE,107,0.0,0.0,96,0.00,,---,0.00,VWS V13.01,2013-07-05 07:57:00,
2013-07-05 04:02:00,67.8,66.9,30.11,ESE,107,0.0,0.0,97,0.00,,---,0.00,VWS V13.01,2013-07-05 08:02:00,
2013-07-05 04:07:00,67.7,66.8,30.11,ESE,107,0.0,0.0,97,0.00,,---,0.00,VWS V13.01,2013-07-05 08:07:00,
2013-07-05 04:12:00,67.7,66.8,30.11,ESE,107,0.0,0.0,97,0.00,,---,0.00,VWS V13.01,2013-07-05 08:12:00,
2013-07-05 04:17:00,67.6,66.4,30.11,ESE,107,0.0,0.0,96,0.00,,---,0.00,VWS V13.01,2013-07-05 08:17:00,
2013-07-05 04:22:00,67.6,66.4,30.11,ESE,107,0.0,0.0,96,0.00,,---,0.00,VWS V13.01,2013-07-05 08:22:00,
2013-07-05 04:27:00,67.6,66.4,30.11,ESE,107,0.0,0.0,96,0.00,,---,0.00,VWS V13.01,2013-07-05 08:27:00,
2013-07-05 04:32:00,67.5,66.3,30.11,ESE,107,0.0,0.0,96,0.00,,---,0.00,VWS V13.01,2013-07-05 08:32:00,
2013-07-05 04:37:00,67.5,66.6,30.11,ESE,107,0.0,0.0,97,0.00,,---,0.00,VWS V13.01,2013-07-05 08:37:00,
2013-07-05 04:42:00,67.4,66.5,30.11,ESE,107,0.0,0.0,97,0.00,,---,0.00,VWS V13.01,2013-07-05 08:42:00,
2013-07-05 04:47:00,67.4,66.5,30.11,ESE,107,0.0,0.0,97,0.00,,---,0.00,VWS V13.01,2013-07-05 08:47:00,
2013-07-05 04:52:00,67.4,66.5,30.11,ESE,107,0.0,0.0,97,0.00,,---,0.00,VWS V13.01,2013-07-05 08:52:00,
2013-07-05 04:57:00,67.4,66.5,30.11,ESE,107,0.0,0.0,97,0.00,,---,0.00,VWS V13.01,2013-07-05 08:57:00,
2013-07-05 05:02:00,67.4,66.5,30.11,ESE,107,0.0,0.0,97,0.00,,---,0.00,VWS V13.01,2013-07-05 09:02:00,
2013-07-05 05:07:00,67.4,66.5,30.11,ESE,107,0.0,0.0,97,0.00,,---,0.00,VWS V13.01,2013-07-05 09:07:00,
2013-07-05 05:12:00,67.4,66.5,30.11,ESE,107,0.0,0.0,97,0.00,,---,0.00,VWS V13.01,2013-07-05 09:12:00,
2013-07-05 05:17:00,67.4,66.5,30.11,ESE,107,0.0,0.0,97,0.00,,---,0.00,VWS V13.01,2013-07-05 09:17:00,
2013-07-05 05:22:00,67.4,66.5,30.11,ESE,107,0.0,0.0,97,0.00,,---,0.00,VWS V13.01,2013-07-05 09:22:00,
2013-07-05 05:27:00,67.4,66.5,30.11,ESE,107,0.0,0.0,97,0.00,,---,0.00,VWS V13.01,2013-07-05 09:27:00,
2013-07-05 05:32:00,67.4,66.5,30.11,ESE,107,0.0,0.0,97,0.00,,---,0.00,VWS V13.01,2013-07-05 09:32:00,
2013-07-05 05:37:00,67.4,66.5,30.11,ESE,107,0.0,0.0,97,0.00,,---,0.00,VWS V13.01,2013-07-05 09:37:00,
2013-07-05 05:42:00,67.4,66.5,30.11,ESE,107,0.0,0.0,97,0.00,,---,0.00,VWS V13.01,2013-07-05 09:42:00,
2013-07-05 05:47:00,67.4,66.5,30.11,ESE,107,0.0,0.0,97,0.00,,---,0.00,VWS V13.01,2013-07-05 09:47:00,
2013-07-05 05:53:00,67.4,66.5,30.11,ESE,107,0.0,0.0,97,0.00,,---,0.00,VWS V13.01,2013-07-05 09:53:00,
2013-07-05 05:57:00,67.4,66.5,30.11,ESE,107,0.0,0.0,97,0.00,,---,0.00,VWS V13.01,2013-07-05 09:57:00,
2013-07-05 06:03:00,67.5,66.6,30.11,ESE,107,0.0,0.0,97,0.00,,---,0.00,VWS V13.01,2013-07-05 10:03:00,
2013-07-05 06:08:00,67.6,66.7,30.11,ESE,107,0.0,0.0,97,0.00,,---,0.00,VWS V13.01,2013-07-05 10:08:00,
2013-07-05 06:13:00,67.6,66.7,30.11,ESE,107,0.0,0.0,97,0.00,,---,0.00,VWS V13.01,2013-07-05 10:13:00,
2013-07-05 06:18:00,67.6,66.7,30.11,ESE,107,0.0,0.0,97,0.00,,---,0.00,VWS V13.01,2013-07-05 10:18:00,
2013-07-05 06:23:00,67.7,66.8,30.11,ESE,107,0.0,0.0,97,0.00,,---,0.00,VWS V13.01,2013-07-05 10:23:00,
2013-07-05 06:28:00,67.7,66.8,30.12,ESE,107,0.0,0.0,97,0.01,,---,0.01,VWS V13.01,2013-07-05 10:28:00,
2013-07-05 06:33:00,67.8,66.9,30.12,ESE,107,0.0,0.0,97,0.01,,---,0.01,VWS V13.01,2013-07-05 10:33:00,
2013-07-05 06:38:00,67.9,67.0,30.11,ESE,107,0.0,0.0,97,0.01,,---,0.01,VWS V13.01,2013-07-05 10:38:00,
2013-07-05 06:43:00,68.0,67.1,30.11,ESE,107,0.0,0.0,97,0.01,,---,0.01,VWS V13.01,2013-07-05 10:43:00,
2013-07-05 06:48:00,68.1,67.2,30.11,ESE,107,0.0,0.0,97,0.01,,---,0.01,VWS V13.01,2013-07-05 10:48:00,
2013-07-05 06:53:00,68.3,67.4,30.11,ESE,107,0.0,0.0,97,0.01,,---,0.01,VWS V13.01,2013-07-05 10:53:00,
2013-07-05 06:58:00,68.5,67.6,30.12,ESE,107,0.0,0.0,97,0.01,,---,0.01,VWS V13.01,2013-07-05 10:58:00,
2013-07-05 07:03:00,68.6,67.7,30.12,ESE,107,0.0,0.0,97,0.01,,---,0.01,VWS V13.01,2013-07-05 11:03:00,
2013-07-05 07:08:00,68.8,67.9,30.12,ESE,107,0.0,0.0,97,0.01,,---,0.01,VWS V13.01,2013-07-05 11:08:00,
2013-07-05 07:14:00,69.0,68.1,30.12,ESE,107,0.0,0.0,97,0.01,,---,0.01,VWS V13.01,2013-07-05 11:14:00,
2013-07-05 07:19:00,69.2,68.6,30.12,ESE,107,0.0,0.0,98,0.01,,---,0.01,VWS V13.01,2013-07-05 11:19:00,
2013-07-05 07:24:00,69.5,68.9,30.11,ESE,107,0.0,0.0,98,0.01,,---,0.01,VWS V13.01,2013-07-05 11:24:00,
2013-07-05 07:29:00,69.9,69.3,30.11,ESE,107,0.0,0.0,98,0.01,,---,0.01,VWS V13.01,2013-07-05 11:29:00,
2013-07-05 07:34:00,70.2,69.6,30.11,ESE,107,0.0,0.0,98,0.00,,---,0.01,VWS V13.01,2013-07-05 11:34:00,
2013-07-05 07:39:00,70.6,70.0,30.12,ESE,107,0.0,0.0,98,0.00,,---,0.01,VWS V13.01,2013-07-05 11:39:00,
2013-07-05 07:44:00,70.8,70.2,30.11,ESE,107,0.0,1.0,98,0.00,,---,0.01,VWS V13.01,2013-07-05 11:44:00,
2013-07-05 07:49:00,71.0,70.4,30.12,ESE,107,0.0,1.0,98,0.00,,---,0.01,VWS V13.01,2013-07-05 11:49:00,
2013-07-05 07:54:00,71.0,70.1,30.11,ESE,107,0.0,1.0,97,0.00,,---,0.01,VWS V13.01,2013-07-05 11:54:00,
2013-07-05 07:59:00,71.2,70.3,30.12,ESE,107,0.0,1.0,97,0.00,,---,0.01,VWS V13.01,2013-07-05 11:59:00,
2013-07-05 08:04:00,71.6,70.7,30.12,ESE,107,0.0,1.0,97,0.00,,---,0.01,VWS V13.01,2013-07-05 12:04:00,
2013-07-05 08:09:00,71.7,70.8,30.12,ESE,107,0.0,1.0,97,0.00,,---,0.01,VWS V13.01,2013-07-05 12:09:00,
2013-07-05 08:14:00,71.8,70.9,30.12,ESE,107,0.0,1.0,97,0.00,,---,0.01,VWS V13.01,2013-07-05 12:14:00,
2013-07-05 08:19:00,72.0,70.8,30.13,ESE,110,0.0,2.0,96,0.00,,---,0.01,VWS V13.01,2013-07-05 12:19:00,
2013-07-05 08:24:00,72.2,71.0,30.13,ESE,110,0.0,2.0,96,0.00,,---,0.01,VWS V13.01,2013-07-05 12:24:00,
2013-07-05 08:29:00,72.5,71.3,30.13,ESE,110,0.0,2.0,96,0.00,,---,0.01,VWS V13.01,2013-07-05 12:29:00,
2013-07-05 08:34:00,72.7,71.5,30.13,ESE,116,0.0,1.0,96,0.00,,---,0.01,VWS V13.01,2013-07-05 12:34:00,
2013-07-05 08:39:00,72.8,71.0,30.13,ESE,123,1.0,2.0,94,0.00,,---,0.01,VWS V13.01,2013-07-05 12:39:00,
2013-07-05 08:44:00,73.2,71.1,30.13,South,173,2.0,3.0,93,0.00,,---,0.01,VWS V13.01,2013-07-05 12:44:00,
2013-07-05 08:49:00,73.7,70.6,30.13,SSW,208,2.0,4.0,90,0.00,,---,0.01,VWS V13.01,2013-07-05 12:49:00,
2013-07-05 08:54:00,74.2,70.4,30.13,SSW,213,2.0,4.0,88,0.00,,---,0.01,VWS V13.01,2013-07-05 12:54:00,
2013-07-05 08:59:00,74.6,70.8,30.13,SSW,213,2.0,4.0,88,0.00,,---,0.01,VWS V13.01,2013-07-05 12:59:00,
2013-07-05 09:04:00,75.0,70.5,30.13,WSW,245,2.0,6.0,86,0.00,,---,0.01,VWS V13.01,2013-07-05 13:04:00,
2013-07-05 09:09:00,75.4,69.9,30.14,SSW,205,3.0,7.0,83,0.00,,---,0.01,VWS V13.01,2013-07-05 13:09:00,
2013-07-05 09:14:00,75.9,70.4,30.13,SW,223,3.0,7.0,83,0.00,,---,0.01,VWS V13.01,2013-07-05 13:14:00,
2013-07-05 09:19:00,76.2,69.9,30.13,SW,217,1.0,7.0,81,0.00,,---,0.01,VWS V13.01,2013-07-05 13:19:00,
2013-07-05 09:24:00,76.5,69.9,30.13,SSW,211,2.0,7.0,80,0.00,,---,0.01,VWS V13.01,2013-07-05 13:24:00,
2013-07-05 09:29:00,76.6,69.2,30.13,SSW,194,2.0,7.0,78,0.00,,---,0.01,VWS V13.01,2013-07-05 13:29:00,
2013-07-05 09:34:00,76.9,69.9,30.13,SW,215,3.0,7.0,79,0.00,,---,0.01,VWS V13.01,2013-07-05 13:34:00,
2013-07-05 09:39:00,77.2,69.8,30.13,South,180,4.0,8.0,78,0.00,,---,0.01,VWS V13.01,2013-07-05 13:39:00,
2013-07-05 09:44:00,77.7,69.5,30.13,SSW,208,3.0,8.0,76,0.00,,---,0.01,VWS V13.01,2013-07-05 13:44:00,
2013-07-05 09:49:00,78.6,70.8,30.13,SW,234,5.0,8.0,77,0.00,,---,0.01,VWS V13.01,2013-07-05 13:49:00,
2013-07-05 09:54:00,79.4,70.8,30.13,South,188,6.0,8.0,75,0.00,,---,0.01,VWS V13.01,2013-07-05 13:54:00,
2013-07-05 09:59:00,80.1,70.7,30.13,SW,229,9.0,11.0,73,0.00,,---,0.01,VWS V13.01,2013-07-05 13:59:00,
2013-07-05 10:04:00,80.7,70.8,30.13,SW,233,6.0,13.0,72,0.00,,---,0.01,VWS V13.01,2013-07-05 14:04:00,
2013-07-05 10:09:00,80.9,69.8,30.13,WSW,258,5.0,13.0,69,0.00,,---,0.01,VWS V13.01,2013-07-05 14:09:00,
2013-07-05 10:14:00,80.5,69.8,30.14,SSW,211,5.0,13.0,70,0.00,,---,0.01,VWS V13.01,2013-07-05 14:14:00,
2013-07-05 10:19:00,80.0,69.8,30.13,SSW,196,6.0,13.0,71,0.00,,---,0.01,VWS V13.01,2013-07-05 14:19:00,
2013-07-05 10:24:00,79.7,69.9,30.14,SW,232,4.0,13.0,72,0.00,,---,0.01,VWS V13.01,2013-07-05 14:24:00,
2013-07-05 10:29:00,79.5,69.7,30.13,SW,219,8.0,13.0,72,0.00,,---,0.01,VWS V13.01,2013-07-05 14:29:00,
2013-07-05 10:35:00,79.3,69.5,30.14,WSW,244,3.0,8.0,72,0.00,,---,0.01,VWS V13.01,2013-07-05 14:35:00,
2013-07-05 10:40:00,79.1,69.7,30.14,WSW,249,3.0,8.0,73,0.00,,---,0.01,VWS V13.01,2013-07-05 14:40:00,
2013-07-05 10:45:00,79.1,69.7,30.13,SW,219,7.0,8.0,73,0.00,,---,0.01,VWS V13.01,2013-07-05 14:45:00,
2013-07-05 10:50:00,79.3,69.9,30.13,SSW,213,7.0,8.0,73,0.00,,---,0.01,VWS V13.01,2013-07-05 14:50:00,
2013-07-05 10:55:00,79.8,70.8,30.13,SSW,206,3.0,8.0,74,0.00,,---,0.01,VWS V13.01,2013-07-05 14:55:00,
2013-07-05 11:00:00,80.3,70.5,30.13,SSW,205,2.0,3.0,72,0.00,,---,0.01,VWS V13.01,2013-07-05 15:00:00,
2013-07-05 11:05:00,80.8,70.9,30.14,WSW,246,4.0,8.0,72,0.00,,---,0.01,VWS V13.01,2013-07-05 15:05:00,
2013-07-05 11:10:00,81.2,70.5,30.14,SW,223,4.0,14.0,70,0.00,,---,0.01,VWS V13.01,2013-07-05 15:10:00,
2013-07-05 11:15:00,81.5,71.6,30.14,SW,219,8.0,14.0,72,0.00,,---,0.01,VWS V13.01,2013-07-05 15:15:00,
2013-07-05 11:20:00,81.8,70.6,30.14,SSW,198,3.0,14.0,69,0.00,,---,0.01,VWS V13.01,2013-07-05 15:20:00,
2013-07-05 11:25:00,81.9,69.9,30.14,WSW,238,13.0,15.0,67,0.00,,---,0.01,VWS V13.01,2013-07-05 15:25:00,
2013-07-05 11:30:00,82.2,70.6,30.14,SSW,200,3.0,8.0,68,0.00,,---,0.01,VWS V13.01,2013-07-05 15:30:00,
2013-07-05 11:35:00,82.7,70.6,30.14,South,188,6.0,13.0,67,0.00,,---,0.01,VWS V13.01,2013-07-05 15:35:00,
2013-07-05 11:40:00,82.9,70.4,30.14,SW,236,7.0,14.0,66,0.00,,---,0.01,VWS V13.01,2013-07-05 15:40:00,
2013-07-05 11:45:00,83.1,71.4,30.14,SSW,206,6.0,14.0,68,0.00,,---,0.01,VWS V13.01,2013-07-05 15:45:00,
2013-07-05 11:50:00,83.6,70.6,30.14,WSW,237,7.0,14.0,65,0.00,,---,0.01,VWS V13.01,2013-07-05 15:50:00,
2013-07-05 11:55:00,83.8,69.9,30.14,SW,226,6.0,18.0,63,0.00,,---,0.01,VWS V13.01,2013-07-05 15:55:00,
2013-07-05 12:00:00,83.6,69.2,30.14,SSW,213,9.0,14.0,62,0.00,,---,0.01,VWS V13.01,2013-07-05 16:00:00,
2013-07-05 12:05:00,83.5,70.1,30.14,South,186,4.0,14.0,64,0.00,,---,0.01,VWS V13.01,2013-07-05 16:05:00,
2013-07-05 12:10:00,84.1,72.0,30.14,WNW,296,11.0,14.0,67,0.00,,---,0.01,VWS V13.01,2013-07-05 16:10:00,
2013-07-05 12:15:00,83.9,69.5,30.14,SSW,207,7.0,15.0,62,0.00,,---,0.01,VWS V13.01,2013-07-05 16:15:00,
2013-07-05 12:20:00,83.3,70.3,30.14,SW,221,6.0,15.0,65,0.00,,---,0.01,VWS V13.01,2013-07-05 16:20:00,
2013-07-05 12:25:00,83.9,71.8,30.13,SSW,207,6.0,15.0,67,0.00,,---,0.01,VWS V13.01,2013-07-05 16:25:00,
2013-07-05 12:30:00,84.5,69.6,30.13,SSW,210,7.0,11.0,61,0.00,,---,0.01,VWS V13.01,2013-07-05 16:30:00,
2013-07-05 12:35:00,84.8,70.3,30.13,South,172,5.0,12.0,62,0.00,,---,0.01,VWS V13.01,2013-07-05 16:35:00,
2013-07-05 12:40:00,85.1,70.6,30.13,SW,219,8.0,12.0,62,0.00,,---,0.01,VWS V13.01,2013-07-05 16:40:00,
2013-07-05 12:45:00,84.3,70.3,30.13,South,191,7.0,13.0,63,0.00,,---,0.01,VWS V13.01,2013-07-05 16:45:00,
2013-07-05 12:50:00,84.2,70.2,30.13,WSW,243,7.0,13.0,63,0.00,,---,0.01,VWS V13.01,2013-07-05 16:50:00,
2013-07-05 12:55:00,83.9,70.0,30.13,SSW,202,6.0,13.0,63,0.00,,---,0.01,VWS V13.01,2013-07-05 16:55:00,
2013-07-05 13:00:00,83.9,70.0,30.13,SW,222,6.0,9.0,63,0.00,,---,0.01,VWS V13.01,2013-07-05 17:00:00,
2013-07-05 13:05:00,84.4,70.9,30.12,SSW,211,4.0,9.0,64,0.00,,---,0.01,VWS V13.01,2013-07-05 17:05:00,
2013-07-05 13:10:00,84.6,70.6,30.12,SSW,213,5.0,10.0,63,0.00,,---,0.01,VWS V13.01,2013-07-05 17:10:00,
2013-07-05 13:15:00,85.0,71.0,30.12,SW,227,7.0,14.0,63,0.00,,---,0.01,VWS V13.01,2013-07-05 17:15:00,
2013-07-05 13:20:00,85.3,70.8,30.12,SW,221,5.0,14.0,62,0.00,,---,0.01,VWS V13.01,2013-07-05 17:20:00,
2013-07-05 13:25:00,85.1,70.2,30.12,SW,222,5.0,14.0,61,0.00,,---,0.01,VWS V13.01,2013-07-05 17:25:00,
2013-07-05 13:30:00,85.1,70.6,30.12,SSW,197,6.0,10.0,62,0.00,,---,0.01,VWS V13.01,2013-07-05 17:30:00,
2013-07-05 13:35:00,85.0,71.0,30.12,SW,219,8.0,13.0,63,0.00,,---,0.01,VWS V13.01,2013-07-05 17:35:00,
2013-07-05 13:40:00,85.0,69.6,30.11,SSW,213,8.0,14.0,60,0.00,,---,0.01,VWS V13.01,2013-07-05 17:40:00,
2013-07-05 13:45:00,85.2,70.7,30.11,SW,236,9.0,14.0,62,0.00,,---,0.01,VWS V13.01,2013-07-05 17:45:00,
2013-07-05 13:50:00,85.3,69.4,30.11,SW,217,6.0,14.0,59,0.00,,---,0.01,VWS V13.01,2013-07-05 17:50:00,
2013-07-05 13:55:00,85.3,69.4,30.11,SW,236,9.0,14.0,59,0.00,,---,0.01,VWS V13.01,2013-07-05 17:55:00,
2013-07-05 14:00:00,85.6,70.1,30.11,SSW,210,7.0,12.0,60,0.00,,---,0.01,VWS V13.01,2013-07-05 18:00:00,
2013-07-05 14:05:00,85.6,68.6,30.11,SW,221,8.0,14.0,57,0.00,,---,0.01,VWS V13.01,2013-07-05 18:05:00,
2013-07-05 14:10:00,85.9,70.9,30.11,WSW,245,11.0,14.0,61,0.00,,---,0.01,VWS V13.01,2013-07-05 18:10:00,
2013-07-05 14:15:00,86.0,70.5,30.11,SW,232,5.0,15.0,60,0.00,,---,0.01,VWS V13.01,2013-07-05 18:15:00,
2013-07-05 14:16:00,86.0,70.5,30.11,West,275,6.0,15.0,60,0.00,,---,0.01,VWS V13.01,2013-07-05 18:16:00,
2013-07-05 14:21:00,86.1,70.1,30.10,SSW,205,7.0,15.0,59,0.00,,---,0.01,VWS V13.01,2013-07-05 18:21:00,
2013-07-05 14:26:00,86.3,70.3,30.10,WNW,282,2.0,15.0,59,0.00,,---,0.01,VWS V13.01,2013-07-05 18:26:00,
2013-07-05 14:31:00,86.7,70.7,30.10,WSW,238,10.0,10.0,59,0.00,,---,0.01,VWS V13.01,2013-07-05 18:31:00,
2013-07-05 14:36:00,86.5,70.5,30.10,West,263,2.0,11.0,59,0.00,,---,0.01,VWS V13.01,2013-07-05 18:36:00,
2013-07-05 14:41:00,86.5,70.5,30.10,WSW,252,6.0,11.0,59,0.00,,---,0.01,VWS V13.01,2013-07-05 18:41:00,
2013-07-05 14:45:00,86.5,70.5,30.10,SW,226,6.0,13.0,59,0.00,,---,0.01,VWS V13.01,2013-07-05 18:45:00,
2013-07-05 14:51:00,86.4,69.9,30.10,SSW,193,4.0,13.0,58,0.00,,---,0.01,VWS V13.01,2013-07-05 18:51:00,
2013-07-05 14:56:00,85.5,69.1,30.10,SW,236,12.0,13.0,58,0.00,,---,0.01,VWS V13.01,2013-07-05 18:56:00,
2013-07-05 15:00:00,85.7,70.7,30.10,SW,216,5.0,8.0,61,0.00,,---,0.01,VWS V13.01,2013-07-05 19:00:00,
2013-07-05 15:06:00,86.1,70.6,30.10,SW,227,3.0,14.0,60,0.00,,---,0.01,VWS V13.01,2013-07-05 19:06:00,
2013-07-05 15:10:00,86.2,70.2,30.09,SSW,211,7.0,14.0,59,0.00,,---,0.01,VWS V13.01,2013-07-05 19:10:00,
2013-07-05 15:16:00,86.7,69.7,30.09,SSW,197,7.0,14.0,57,0.00,,---,0.01,VWS V13.01,2013-07-05 19:16:00,
2013-07-05 15:21:00,86.6,70.1,30.09,West,272,2.0,14.0,58,0.00,,---,0.01,VWS V13.01,2013-07-05 19:21:00,
2013-07-05 15:26:00,86.7,70.2,30.09,SW,229,5.0,14.0,58,0.00,,---,0.01,VWS V13.01,2013-07-05 19:26:00,
2013-07-05 15:31:00,86.8,69.8,30.09,SSW,198,5.0,13.0,57,0.00,,---,0.01,VWS V13.01,2013-07-05 19:31:00,
2013-07-05 15:36:00,86.7,70.2,30.09,SW,225,10.0,13.0,58,0.00,,---,0.01,VWS V13.01,2013-07-05 19:36:00,
2013-07-05 15:41:00,86.5,69.5,30.08,West,273,9.0,13.0,57,0.00,,---,0.01,VWS V13.01,2013-07-05 19:41:00,
2013-07-05 15:46:00,86.5,70.0,30.08,West,269,10.0,14.0,58,0.00,,---,0.01,VWS V13.01,2013-07-05 19:46:00,
2013-07-05 15:51:00,86.6,70.6,30.08,SW,223,5.0,14.0,59,0.00,,---,0.01,VWS V13.01,2013-07-05 19:51:00,
2013-07-05 15:56:00,86.7,70.7,30.08,SSW,201,6.0,14.0,59,0.00,,---,0.01,VWS V13.01,2013-07-05 19:56:00,
2013-07-05 16:01:00,86.7,69.7,30.08,WSW,256,3.0,7.0,57,0.00,,---,0.01,VWS V13.01,2013-07-05 20:01:00,
2013-07-05 16:06:00,87.0,71.9,30.08,SW,229,9.0,9.0,61,0.00,,---,0.01,VWS V13.01,2013-07-05 20:06:00,
2013-07-05 16:11:00,87.1,71.0,30.08,SSW,202,2.0,11.0,59,0.00,,---,0.01,VWS V13.01,2013-07-05 20:11:00,
2013-07-05 16:16:00,87.4,71.8,30.08,WSW,242,7.0,11.0,60,0.00,,---,0.01,VWS V13.01,2013-07-05 20:16:00,
2013-07-05 16:21:00,87.4,70.8,30.08,SW,219,4.0,12.0,58,0.00,,---,0.01,VWS V13.01,2013-07-05 20:21:00,
2013-07-05 16:26:00,87.3,70.7,30.07,SW,236,10.0,12.0,58,0.00,,---,0.01,VWS V13.01,2013-07-05 20:26:00,
2013-07-05 16:31:00,87.2,70.6,30.07,SW,223,7.0,12.0,58,0.00,,---,0.01,VWS V13.01,2013-07-05 20:31:00,
2013-07-05 16:36:00,86.8,70.3,30.07,WSW,242,3.0,12.0,58,0.00,,---,0.01,VWS V13.01,2013-07-05 20:36:00,
2013-07-05 16:41:00,86.4,70.4,30.07,WSW,252,2.0,12.0,59,0.00,,---,0.01,VWS V13.01,2013-07-05 20:41:00,
2013-07-05 16:46:00,86.1,70.1,30.07,WSW,244,5.0,12.0,59,0.00,,---,0.01,VWS V13.01,2013-07-05 20:46:00,
2013-07-05 16:51:00,85.6,70.1,30.07,WSW,248,4.0,12.0,60,0.00,,---,0.01,VWS V13.01,2013-07-05 20:51:00,
2013-07-05 16:56:00,85.1,69.7,30.07,SW,236,4.0,13.0,60,0.00,,---,0.01,VWS V13.01,2013-07-05 20:56:00,
2013-07-05 17:01:00,84.8,69.9,30.07,WSW,243,6.0,10.0,61,0.00,,---,0.01,VWS V13.01,2013-07-05 21:01:00,
2013-07-05 17:06:00,84.5,69.6,30.07,WSW,253,5.0,10.0,61,0.00,,---,0.01,VWS V13.01,2013-07-05 21:06:00,
2013-07-05 17:11:00,84.2,69.8,30.07,SW,235,2.0,13.0,62,0.00,,---,0.01,VWS V13.01,2013-07-05 21:11:00,
2013-07-05 17:16:00,84.1,69.2,30.07,WSW,250,7.0,13.0,61,0.00,,---,0.01,VWS V13.01,2013-07-05 21:16:00,
2013-07-05 17:21:00,83.9,69.5,30.07,WSW,247,5.0,13.0,62,0.00,,---,0.01,VWS V13.01,2013-07-05 21:21:00,
2013-07-05 17:26:00,83.6,70.1,30.07,WNW,302,3.0,13.0,64,0.00,,---,0.01,VWS V13.01,2013-07-05 21:26:00,
2013-07-05 17:31:00,83.1,71.0,30.07,WSW,246,2.0,5.0,67,0.00,,---,0.01,VWS V13.01,2013-07-05 21:31:00,
2013-07-05 17:36:00,83.6,71.5,30.07,NW,318,6.0,9.0,67,0.00,,---,0.01,VWS V13.01,2013-07-05 21:36:00,
2013-07-05 17:41:00,83.8,71.7,30.07,SW,214,3.0,9.0,67,0.00,,---,0.01,VWS V13.01,2013-07-05 21:41:00,
2013-07-05 17:46:00,84.2,71.2,30.07,WSW,240,3.0,9.0,65,0.00,,---,0.01,VWS V13.01,2013-07-05 21:46:00,
2013-07-05 17:51:00,84.4,71.8,30.07,WNW,293,2.0,9.0,66,0.00,,---,0.01,VWS V13.01,2013-07-05 21:51:00,
2013-07-05 17:56:00,84.5,71.4,30.07,NW,310,2.0,9.0,65,0.00,,---,0.01,VWS V13.01,2013-07-05 21:56:00,
2013-07-05 17:57:00,84.5,71.4,30.07,West,272,5.0,9.0,65,0.00,,---,0.01,VWS V13.01,2013-07-05 21:57:00,
2013-07-05 18:02:00,84.2,71.2,30.07,WSW,237,2.0,6.0,65,0.00,,---,0.01,VWS V13.01,2013-07-05 22:02:00,
2013-07-05 18:07:00,84.3,71.7,30.07,WSW,245,2.0,7.0,66,0.00,,---,0.01,VWS V13.01,2013-07-05 22:07:00,
2013-07-05 18:12:00,84.4,70.9,30.07,WSW,248,4.0,7.0,64,0.00,,---,0.01,VWS V13.01,2013-07-05 22:12:00,
2013-07-05 18:17:00,84.6,71.6,30.07,SSW,205,3.0,7.0,65,0.00,,---,0.01,VWS V13.01,2013-07-05 22:17:00,
2013-07-05 18:18:00,84.6,70.6,30.07,SSW,207,3.0,7.0,63,0.00,,---,0.01,VWS V13.01,2013-07-05 22:18:00,
2013-07-05 18:23:00,84.6,71.1,30.07,SSW,203,3.0,7.0,64,0.00,,---,0.01,VWS V13.01,2013-07-05 22:23:00,
2013-07-05 18:28:00,84.7,71.2,30.07,SW,215,4.0,7.0,64,0.00,,---,0.01,VWS V13.01,2013-07-05 22:28:00,
2013-07-05 18:33:00,84.6,70.6,30.07,SSW,202,6.0,9.0,63,0.00,,---,0.01,VWS V13.01,2013-07-05 22:33:00,
2013-07-05 18:38:00,84.6,70.6,30.06,SW,221,7.0,9.0,63,0.00,,---,0.01,VWS V13.01,2013-07-05 22:38:00,
2013-07-05 18:43:00,84.6,70.6,30.06,SSW,207,3.0,9.0,63,0.00,,---,0.01,VWS V13.01,2013-07-05 22:43:00,
2013-07-05 18:48:00,84.6,70.6,30.06,SSW,207,4.0,9.0,63,0.00,,---,0.01,VWS V13.01,2013-07-05 22:48:00,
2013-07-05 18:53:00,84.5,71.0,30.06,SSW,209,4.0,9.0,64,0.00,,---,0.01,VWS V13.01,2013-07-05 22:53:00,
2013-07-05 18:58:00,84.3,70.8,30.07,SW,217,4.0,9.0,64,0.00,,---,0.01,VWS V13.01,2013-07-05 22:58:00,
2013-07-05 19:03:00,84.2,70.2,30.07,WSW,237,3.0,6.0,63,0.00,,---,0.01,VWS V13.01,2013-07-05 23:03:00,
2013-07-05 19:08:00,84.0,70.1,30.06,WSW,242,2.0,7.0,63,0.00,,---,0.01,VWS V13.01,2013-07-05 23:08:00,
2013-07-05 19:13:00,83.8,69.9,30.06,WSW,238,9.0,9.0,63,0.00,,---,0.01,VWS V13.01,2013-07-05 23:13:00,
2013-07-05 19:18:00,83.8,69.9,30.06,WSW,248,3.0,9.0,63,0.00,,---,0.01,VWS V13.01,2013-07-05 23:18:00,
2013-07-05 19:23:00,83.8,69.9,30.06,SW,229,3.0,9.0,63,0.00,,---,0.01,VWS V13.01,2013-07-05 23:23:00,
2013-07-05 19:28:00,83.8,69.9,30.06,WSW,249,5.0,9.0,63,0.00,,---,0.01,VWS V13.01,2013-07-05 23:28:00,
2013-07-05 19:33:00,83.6,69.7,30.07,SW,224,5.0,7.0,63,0.00,,---,0.01,VWS V13.01,2013-07-05 23:33:00,
2013-07-05 19:38:00,83.3,68.9,30.07,SSW,200,3.0,10.0,62,0.00,,---,0.01,VWS V13.01,2013-07-05 23:38:00,
2013-07-05 19:43:00,83.0,69.1,30.07,SSW,212,5.0,10.0,63,0.00,,---,0.01,VWS V13.01,2013-07-05 23:43:00,
2013-07-05 19:48:00,82.8,69.4,30.08,SW,217,4.0,10.0,64,0.00,,---,0.01,VWS V13.01,2013-07-05 23:48:00,
2013-07-05 19:53:00,82.7,69.3,30.08,SSW,192,8.0,10.0,64,0.00,,---,0.01,VWS V13.01,2013-07-05 23:53:00,
2013-07-05 19:58:00,82.5,69.1,30.07,SSW,198,5.0,10.0,64,0.00,,---,0.01,VWS V13.01,2013-07-05 23:58:00,
2013-07-05 20:03:00,82.2,69.3,30.08,SSW,196,5.0,7.0,65,0.00,,---,0.01,VWS V13.01,2013-07-06 00:03:00,
2013-07-05 20:08:00,81.8,68.9,30.08,SSW,209,4.0,7.0,65,0.00,,---,0.01,VWS V13.01,2013-07-06 00:08:00,
2013-07-05 20:13:00,81.5,69.1,30.08,SSW,208,2.0,7.0,66,0.00,,---,0.01,VWS V13.01,2013-07-06 00:13:00,
2013-07-05 20:18:00,81.2,68.8,30.08,SSW,198,7.0,8.0,66,0.00,,---,0.01,VWS V13.01,2013-07-06 00:18:00,
2013-07-05 20:23:00,81.0,69.0,30.08,South,176,6.0,8.0,67,0.00,,---,0.01,VWS V13.01,2013-07-06 00:23:00,
2013-07-05 20:29:00,80.8,69.3,30.08,SSW,204,3.0,8.0,68,0.00,,---,0.01,VWS V13.01,2013-07-06 00:29:00,
2013-07-05 20:33:00,80.6,69.5,30.08,SSW,192,3.0,7.0,69,0.00,,---,0.01,VWS V13.01,2013-07-06 00:33:00,
2013-07-05 20:39:00,80.4,69.3,30.09,SW,232,3.0,7.0,69,0.00,,---,0.01,VWS V13.01,2013-07-06 00:39:00,
2013-07-05 20:44:00,80.2,69.1,30.09,SSW,202,6.0,7.0,69,0.00,,---,0.01,VWS V13.01,2013-07-06 00:44:00,
2013-07-05 20:48:00,80.0,69.3,30.09,SSW,202,6.0,8.0,70,0.00,,---,0.01,VWS V13.01,2013-07-06 00:48:00,
2013-07-05 20:53:00,79.8,69.2,30.09,South,184,5.0,8.0,70,0.00,,---,0.01,VWS V13.01,2013-07-06 00:53:00,
2013-07-05 20:59:00,79.6,69.4,30.09,SW,216,4.0,8.0,71,0.00,,---,0.01,VWS V13.01,2013-07-06 00:59:00,
2013-07-05 21:04:00,79.4,69.2,30.09,SSW,198,4.0,6.0,71,0.00,,---,0.01,VWS V13.01,2013-07-06 01:04:00,
2013-07-05 21:09:00,79.2,69.4,30.09,South,182,5.0,6.0,72,0.00,,---,0.01,VWS V13.01,2013-07-06 01:09:00,
2013-07-05 21:13:00,79.0,69.6,30.09,SW,219,0.0,6.0,73,0.00,,---,0.01,VWS V13.01,2013-07-06 01:13:00,
2013-07-05 21:18:00,78.8,69.4,30.09,SSW,201,1.0,6.0,73,0.00,,---,0.01,VWS V13.01,2013-07-06 01:18:00,
2013-07-05 21:23:00,78.5,69.5,30.09,SSW,195,0.0,6.0,74,0.00,,---,0.01,VWS V13.01,2013-07-06 01:23:00,
2013-07-05 21:28:00,78.2,69.2,30.09,SSW,195,0.0,6.0,74,0.00,,---,0.01,VWS V13.01,2013-07-06 01:28:00,
2013-07-05 21:33:00,77.9,69.7,30.09,SSW,195,0.0,1.0,76,0.00,,---,0.01,VWS V13.01,2013-07-06 01:33:00,
2013-07-05 21:38:00,77.5,69.3,30.09,SSW,195,0.0,1.0,76,0.00,,---,0.01,VWS V13.01,2013-07-06 01:38:00,
2013-07-05 21:43:00,77.1,69.3,30.09,SSW,195,0.0,1.0,77,0.00,,---,0.01,VWS V13.01,2013-07-06 01:43:00,
2013-07-05 21:44:00,77.1,69.3,30.09,SSW,195,0.0,1.0,77,0.00,,---,0.01,VWS V13.01,2013-07-06 01:44:00,
2013-07-05 21:49:00,76.8,69.4,30.10,SSW,195,0.0,1.0,78,0.00,,---,0.01,VWS V13.01,2013-07-06 01:49:00,
2013-07-05 21:54:00,76.5,69.5,30.10,SSW,195,0.0,1.0,79,0.00,,---,0.01,VWS V13.01,2013-07-06 01:54:00,
2013-07-05 21:59:00,76.2,69.2,30.10,SSW,195,0.0,1.0,79,0.00,,---,0.01,VWS V13.01,2013-07-06 01:59:00,
2013-07-05 22:04:00,75.9,69.3,30.10,SSW,195,0.0,0.0,80,0.00,,---,0.01,VWS V13.01,2013-07-06 02:04:00,
2013-07-05 22:09:00,75.6,69.0,30.10,SSW,195,0.0,1.0,80,0.00,,---,0.01,VWS V13.01,2013-07-06 02:09:00,
2013-07-05 22:10:00,75.6,69.4,30.10,SSW,195,1.0,1.0,81,0.00,,---,0.01,VWS V13.01,2013-07-06 02:10:00,
2013-07-05 22:15:00,75.3,69.1,30.10,SSW,195,0.0,1.0,81,0.00,,---,0.01,VWS V13.01,2013-07-06 02:15:00,
2013-07-05 22:20:00,75.1,68.9,30.10,SSW,195,0.0,1.0,81,0.00,,---,0.01,VWS V13.01,2013-07-06 02:20:00,
2013-07-05 22:25:00,74.9,69.0,30.10,SSW,195,0.0,1.0,82,0.00,,---,0.01,VWS V13.01,2013-07-06 02:25:00,
2013-07-05 22:30:00,74.7,68.8,30.10,SSW,195,0.0,0.0,82,0.00,,---,0.01,VWS V13.01,2013-07-06 02:30:00,
2013-07-05 22:35:00,74.5,68.7,30.10,SSW,195,0.0,0.0,82,0.00,,---,0.01,VWS V13.01,2013-07-06 02:35:00,
2013-07-05 22:40:00,74.3,68.8,30.11,SSW,195,0.0,0.0,83,0.00,,---,0.01,VWS V13.01,2013-07-06 02:40:00,
2013-07-05 22:45:00,74.1,68.6,30.11,SSW,195,0.0,0.0,83,0.00,,---,0.01,VWS V13.01,2013-07-06 02:45:00,
2013-07-05 22:50:00,73.8,68.3,30.11,SSW,195,0.0,1.0,83,0.00,,---,0.01,VWS V13.01,2013-07-06 02:50:00,
2013-07-05 22:55:00,73.6,68.1,30.11,SSW,195,0.0,1.0,83,0.00,,---,0.01,VWS V13.01,2013-07-06 02:55:00,
2013-07-05 23:00:00,73.4,68.3,30.11,SSW,195,0.0,0.0,84,0.00,,---,0.01,VWS V13.01,2013-07-06 03:00:00,
2013-07-05 23:05:00,73.3,68.2,30.10,SSW,195,0.0,0.0,84,0.00,,---,0.01,VWS V13.01,2013-07-06 03:05:00,
2013-07-05 23:10:00,73.1,68.3,30.10,SSW,195,0.0,0.0,85,0.00,,---,0.01,VWS V13.01,2013-07-06 03:10:00,
2013-07-05 23:15:00,73.1,68.3,30.10,SSW,195,0.0,0.0,85,0.00,,---,0.01,VWS V13.01,2013-07-06 03:15:00,
2013-07-05 23:20:00,72.9,68.1,30.10,SSW,195,0.0,0.0,85,0.00,,---,0.01,VWS V13.01,2013-07-06 03:20:00,
2013-07-05 23:25:00,72.8,68.4,30.11,SSW,195,0.0,0.0,86,0.00,,---,0.01,VWS V13.01,2013-07-06 03:25:00,
2013-07-05 23:30:00,72.7,68.3,30.11,SSW,195,0.0,0.0,86,0.00,,---,0.01,VWS V13.01,2013-07-06 03:30:00,
2013-07-05 23:35:00,72.5,68.1,30.11,SSW,195,0.0,1.0,86,0.00,,---,0.01,VWS V13.01,2013-07-06 03:35:00,
2013-07-05 23:40:00,72.5,68.4,30.11,SSW,195,1.0,1.0,87,0.00,,---,0.01,VWS V13.01,2013-07-06 03:40:00,
2013-07-05 23:45:00,72.5,68.8,30.11,SSW,195,0.0,1.0,88,0.00,,---,0.01,VWS V13.01,2013-07-06 03:45:00,
2013-07-05 23:50:00,72.5,68.8,30.11,SSW,195,0.0,1.0,88,0.00,,---,0.01,VWS V13.01,2013-07-06 03:50:00,
2013-07-05 23:55:00,72.6,68.8,30.11,SSW,195,0.0,1.0,88,0.00,,---,0.01,VWS V13.01,2013-07-06 03:55:00,